Total_Precipitation_Accumulation
3.47 3.61 3.35 3.26 3.37 3.43 3.66 4.00 4.10 3.74 3.54 3.32 2.79 2.46 2.49 2.75 3.13 2.75 2.60 2.54 2.32 2.19 2.04 1.96 1.96 2.03 2.16 2.34 2.60 2.84 2.96 3.02 3.08 3.07 3.15 3.36 3.52 3.72
3.28 3.32 3.25 3.12 3.26 3.21 3.29 3.57 3.86 3.90 3.59 3.20 2.86 2.47 2.57 2.49 2.81 2.69 2.69 2.65 2.34 2.10 1.88 1.78 1.79 1.82 1.92 2.01 2.09 2.26 2.34 2.38 2.50 2.62 2.63 2.67 2.70 2.85
2.80 2.83 2.89 3.12 3.22 3.14 3.23 3.29 3.58 3.90 3.76 3.44 3.11 2.86 2.79 2.76 2.63 2.57 2.45 2.32 2.13 2.00 1.76 1.66 1.65 1.68 1.73 1.81 1.91 2.06 2.19 2.26 2.30 2.40 2.50 2.54 2.54 2.57
2.65 2.80 2.65 2.86 3.05 2.97 3.12 3.15 3.33 3.71 3.84 3.92 3.78 3.45 3.20 3.04 2.98 2.75 2.30 2.08 2.12 2.11 1.91 1.73 1.63 1.61 1.60 1.64 1.74 1.92 2.05 2.16 2.18 2.18 2.24 2.30 2.42 2.55
2.63 2.65 2.49 2.66 2.74 2.85 2.93 2.99 3.21 3.46 3.79 3.71 3.67 3.59 3.43 3.14 3.26 2.91 2.56 2.49 2.05 2.01 1.98 1.81 1.70 1.63 1.59 1.61 1.69 1.75 1.85 1.99 2.02 2.11 2.22 2.27 2.32 2.42
2.48 2.43 2.31 2.35 2.45 2.70 2.74 2.88 3.13 3.36 3.57 3.49 3.50 3.61 3.70 3.68 3.68 3.34 3.11 2.87 2.47 2.01 2.06 1.91 1.86 1.73 1.60 1.53 1.55 1.63 1.78 1.94 1.99 2.05 2.13 2.20 2.27 2.36
2.30 2.15 1.98 2.08 2.25 2.34 2.21 2.59 2.99 3.13 3.19 3.24 3.30 3.50 3.64 3.90 3.67 3.50 3.40 3.35 3.01 2.53 2.48 2.12 1.99 1.77 1.60 1.52 1.53 1.51 1.56 1.72 1.80 1.89 2.01 2.09 2.20 2.33
2.21 2.19 2.06 1.97 1.94 1.97 1.92 2.11 2.48 2.66 2.87 3.16 3.25 3.42 3.50 3.51 3.67 3.64 3.61 3.48 3.16 2.80 2.79 2.72 2.56 2.41 2.10 1.73 1.63 1.49 1.40 1.51 1.68 1.78 1.91 2.03 2.12 2.23
2.18 2.23 1.95 1.78 1.88 1.74 1.81 1.88 1.93 2.04 2.23 2.66 2.94 3.01 3.09 3.13 3.43 3.48 3.49 3.37 3.25 3.08 3.11 3.06 2.94 2.68 2.23 2.04 1.97 1.69 1.55 1.51 1.59 1.68 1.73 1.86 1.99 2.12
1.87 1.93 1.99 1.96 1.88 1.94 1.91 1.86 1.72 1.74 1.88 1.89 2.05 2.29 2.58 2.86 3.06 3.23 3.54 3.49 3.40 3.30 3.22 3.26 3.10 2.93 2.51 2.23 2.13 1.88 1.76 1.67 1.68 1.71 1.73 1.75 1.81 1.89
1.82 1.86 1.98 2.04 2.11 2.03 1.96 1.95 1.90 1.85 1.79 1.78 1.71 1.80 1.99 2.15 2.37 2.68 3.05 3.38 3.52 3.48 3.26 3.31 3.23 3.25 3.16 2.74 2.34 2.18 1.93 1.80 1.75 1.73 1.72 1.73 1.78 1.86
2.12 2.10 2.03 1.89 1.93 1.87 1.82 1.89 1.86 1.83 1.74 1.69 1.62 1.57 1.55 1.70 1.93 2.17 2.52 2.93 3.17 3.30 3.20 3.32 3.45 3.81 3.96 3.38 2.75 2.35 2.13 2.07 1.94 1.79 1.75 1.79 1.93 1.84
2.09 2.00 1.88 1.72 1.57 1.53 1.50 1.60 1.72 1.70 1.72 1.76 1.79 1.75 1.76 1.78 1.84 1.95 2.30 2.60 2.75 2.63 2.63 3.07 3.27 3.56 3.88 3.75 3.45 3.06 2.73 2.47 2.24 2.07 2.00 2.04 2.12 2.03
2.14 2.09 1.95 1.76 1.54 1.45 1.30 1.36 1.48 1.46 1.53 1.72 1.78 1.77 1.78 1.80 1.89 2.03 2.25 2.46 2.64 2.61 2.63 2.90 3.10 3.32 3.41 3.31 3.25 3.28 3.24 3.07 2.83 2.62 2.37 2.40 2.35 2.41
1.96 2.14 2.02 1.71 1.46 1.35 1.31 1.24 1.17 1.18 1.37 1.50 1.54 1.62 1.70 1.81 1.95 2.14 2.37 2.54 2.59 2.52 2.44 2.64 2.92 3.18 3.30 3.11 2.93 2.90 2.97 2.96 2.87 2.85 2.80 2.68 2.55 2.50
1.76 1.79 1.76 1.62 1.43 1.39 1.42 1.29 1.17 1.26 1.35 1.37 1.45 1.57 1.66 1.76 1.89 1.99 2.19 2.43 2.57 2.44 2.43 2.58 2.81 3.08 3.09 3.00 2.89 2.74 2.75 2.84 2.88 2.97 3.02 2.92 2.78 2.68
1.74 1.75 1.70 1.68 1.54 1.47 1.55 1.57 1.56 1.60 1.55 1.48 1.52 1.56 1.60 1.65 1.71 1.83 2.01 2.15 2.29 2.29 2.30 2.42 2.56 2.76 2.80 2.81 2.79 2.60 2.55 2.53 2.68 3.01 3.26 3.16 2.86 2.69
1.75 1.75 1.86 1.85 1.80 1.80 1.83 1.81 1.79 1.73 1.72 1.75 1.74 1.69 1.68 1.69 1.68 1.74 1.89 2.01 2.08 2.14 2.18 2.20 2.36 2.55 2.59 2.53 2.34 2.25 2.22 2.21 2.29 2.57 2.85 3.00 2.85 2.66
1.81 1.88 2.02 2.03 2.00 2.00 1.93 1.89 1.93 1.86 1.85 1.85 1.83 1.82 1.85 1.87 1.86 1.90 1.99 2.10 2.09 2.04 2.06 2.21 2.29 2.42 2.41 2.29 2.12 1.89 2.00 2.12 2.20 2.23 2.28 2.38 2.43 2.36
1.75 1.96 2.15 2.16 2.17 2.13 2.04 1.96 1.96 1.93 1.87 1.85 1.86 1.85 1.90 1.97 2.00 2.00 2.01 2.07 2.07 2.02 2.04 2.08 2.16 2.21 2.27 2.26 2.15 1.98 1.78 1.92 2.05 2.08 2.03 2.03 1.99 2.07
1.88 2.00 2.06 2.09 2.11 2.07 1.98 1.93 1.96 1.93 1.89 1.92 1.92 1.92 1.91 2.01 2.04 2.01 2.00 2.08 2.00 1.90 1.89 1.91 1.95 2.03 2.14 2.30 2.19 1.94 1.81 1.78 1.86 1.90 1.96 2.05 1.99 1.92
1.86 1.87 1.86 1.86 1.91 1.96 2.00 2.05 2.10 2.06 2.04 2.01 1.93 1.90 1.90 1.96 2.02 2.07 2.07 2.04 1.97 1.90 1.81 1.79 1.83 1.90 2.00 2.15 2.12 1.98 1.90 1.88 1.87 1.88 1.89 1.91 1.88 1.81
1.82 1.83 1.83 1.80 1.78 1.86 1.96 2.00 2.05 2.08 2.05 1.98 1.96 1.96 1.93 1.97 1.98 1.97 1.94 1.87 1.85 1.85 1.90 1.90 1.87 1.89 1.92 2.02 2.13 2.10 1.97 1.99 2.03 1.95 1.75 1.68 1.58 1.44